Jefferson, NC

11:57 AM EDT on July 24, 2017 (GMT -0400)
Ashe County

Weather History for KGEV - December, 2009

Change the Weather History Date:

Saturday, December 12, 2009

  Actual Average Record
Temperature  
Mean Temperature 27 °F -  
Max Temperature 37 °F 48 °F 66 °F (1979)
Min Temperature 17 °F 26 °F 3 °F (1988)
Degree Days  
Heating Degree Days 38    
Moisture  
Dew Point -10 °F    
Average Humidity 26    
Maximum Humidity 53    
Minimum Humidity 4    
Precipitation  
Precipitation 0.00 in - - ()
Sea Level Pressure  
Sea Level Pressure 30.40 in    
Wind  
Wind Speed 2 mph (SSE)    
Max Wind Speed 8 mph    
Max Gust Speed -    
Visibility 10 miles    
Events      
Averages and records for this station are not official NWS values.
T = Trace of Precipitation, MM = Missing Value Source: NWS Daily Summary

Daily Weather History Graph

Daily Weather History Graph

Search for Another Location

Airport or City:

Trip Planner

Search our weather history database for the weather conditions in past years. The results will help you decide how hot, cold, wet, or windy it might be!

Date:

Astronomy

Dec. 12, 2009 Rise Set
Actual Time 7:28 AM EST 5:10 PM EST
Civil Twilight 6:59 AM EST 5:39 PM EST
Nautical Twilight 6:27 AM EST 6:11 PM EST
Astronomical Twilight 5:55 AM EST 6:43 PM EST
Moon 3:47 AM EST (12/12) 2:15 PM EST (12/12)
Length of Visible Light 10h 40m
Length of Day
9h 42m
Waning Crescent, 14% of the Moon is Illuminated
Dec 12
Waning Crescent
Dec 16
New
Dec 24
First Quarter
Dec 31
Full
Jan 7
Last Quarter

Hourly Weather History & Observations

Time (EST) Temp. Windchill Dew Point Humidity Pressure Visibility Wind Dir Wind Speed Gust Speed Precip Events Conditions
12:00 AM 23.0 °F 17.0 °F -5.8 °F 28% 30.38 in 10.0 mi NW 4.6 mph - N/A   Clear
12:20 AM 23.0 °F - -9.4 °F 24% 30.37 in 10.0 mi Calm Calm - N/A   Clear
12:40 AM 21.2 °F - -2.2 °F 36% 30.38 in 10.0 mi Calm Calm - N/A   Clear
1:00 AM 21.2 °F - -2.2 °F 36% 30.38 in 10.0 mi Calm Calm - N/A   Clear
1:20 AM 21.2 °F - -2.2 °F 36% 30.38 in 10.0 mi Calm Calm - N/A   Clear
1:40 AM 21.2 °F - -4.0 °F 33% 30.38 in 10.0 mi Calm Calm - N/A   Clear
2:00 AM 19.4 °F 14.3 °F -0.4 °F 42% 30.38 in 10.0 mi SSW 3.5 mph - N/A   Clear
2:20 AM 19.4 °F - -0.4 °F 42% 30.38 in 10.0 mi Calm Calm - N/A   Clear
2:40 AM 21.2 °F - -2.2 °F 36% 30.39 in 10.0 mi Calm Calm - N/A   Clear
3:00 AM 21.2 °F - -2.2 °F 36% 30.39 in 10.0 mi Calm Calm - N/A   Clear
3:20 AM 19.4 °F - -2.2 °F 39% 30.38 in 10.0 mi Calm Calm - N/A   Clear
3:40 AM 19.4 °F - -4.0 °F 36% 30.39 in 10.0 mi Calm Calm - N/A   Clear
4:00 AM 19.4 °F - -4.0 °F 36% 30.39 in 10.0 mi Calm Calm - N/A   Clear
4:20 AM 21.2 °F - -5.8 °F 30% 30.39 in 10.0 mi Calm Calm - N/A   Clear
4:40 AM 21.2 °F - -7.6 °F 28% 30.40 in 10.0 mi Calm Calm - N/A   Clear
5:00 AM 17.6 °F - 1.4 °F 49% 30.40 in 10.0 mi Calm Calm - N/A   Clear
5:20 AM 17.6 °F - 1.4 °F 49% 30.40 in 10.0 mi Calm Calm - N/A   Clear
5:40 AM 19.4 °F - -2.2 °F 39% 30.40 in 10.0 mi Calm Calm - N/A   Clear
6:00 AM 17.6 °F - 3.2 °F 53% 30.39 in 10.0 mi Calm Calm - N/A   Clear
6:20 AM 19.4 °F - -0.4 °F 42% 30.39 in 10.0 mi Calm Calm - N/A   Clear
6:40 AM 19.4 °F - -0.4 °F 42% 30.40 in 10.0 mi Calm Calm - N/A   Clear
7:00 AM 17.6 °F - 1.4 °F 49% 30.41 in 10.0 mi Calm Calm - N/A   Clear
7:20 AM 23.0 °F - -7.6 °F 26% 30.41 in 10.0 mi Calm Calm - N/A   Clear
7:40 AM 17.6 °F - 1.4 °F 49% 30.41 in 10.0 mi Calm Calm - N/A   Clear
8:00 AM 19.4 °F - -0.4 °F 42% 30.43 in 10.0 mi Calm Calm - N/A   Clear
8:22 AM 21.2 °F - -2.2 °F 36% 30.43 in 10.0 mi Calm Calm - N/A   Clear
8:40 AM 21.2 °F - -0.4 °F 39% 30.43 in 10.0 mi Calm Calm - N/A   Clear
9:00 AM 23.0 °F - -0.4 °F 36% 30.43 in 10.0 mi Calm Calm - N/A   Clear
9:20 AM 24.8 °F - -0.4 °F 34% 30.43 in 10.0 mi Calm Calm - N/A   Clear
9:40 AM 26.6 °F - 3.2 °F 37% 30.44 in 10.0 mi Calm Calm - N/A   Clear
10:00 AM 28.4 °F 24.6 °F 8.6 °F 43% 30.44 in 10.0 mi SSE 3.5 mph - N/A   Clear
10:20 AM 30.2 °F 26.7 °F -0.4 °F 27% 30.43 in 10.0 mi SSE 3.5 mph - N/A   Clear
10:40 AM 32.0 °F 27.5 °F -2.2 °F 23% 30.44 in 10.0 mi SSE 4.6 mph - N/A   Clear
11:00 AM 33.8 °F 29.6 °F -4.0 °F 20% 30.45 in 10.0 mi South 4.6 mph - N/A   Clear
11:20 AM 33.8 °F 27.0 °F -9.4 °F 15% 30.45 in 10.0 mi South 8.1 mph - N/A   Clear
12:00 PM 35.6 °F 29.9 °F -16.6 °F 10% 30.43 in 10.0 mi SSE 6.9 mph - N/A   Clear
12:20 PM 35.6 °F 30.7 °F -18.4 °F 9% 30.42 in 10.0 mi SSE 5.8 mph - N/A   Clear
12:40 PM 35.6 °F 31.7 °F -29.2 °F 5% 30.41 in 10.0 mi South 4.6 mph - N/A   Clear
1:00 PM 35.6 °F 31.7 °F -32.8 °F 4% 30.39 in 10.0 mi SSE 4.6 mph - N/A   Clear
1:20 PM 37.4 °F 32.1 °F -34.6 °F 4% 30.39 in 10.0 mi South 6.9 mph - N/A   Clear
1:40 PM 37.4 °F 34.9 °F -34.6 °F 4% 30.39 in 10.0 mi SSE 3.5 mph - N/A   Clear
2:01 PM 37.4 °F 34.9 °F -38.2 °F 4% 30.38 in 10.0 mi SSE 3.5 mph - N/A   Clear
2:22 PM 37.4 °F 33.8 °F -41.8 °F 4% 30.38 in 10.0 mi SSE 4.6 mph - N/A   Clear
2:40 PM 37.4 °F 32.8 °F -36.4 °F 4% 30.38 in 10.0 mi South 5.8 mph - N/A   Clear
3:01 PM 35.6 °F 32.8 °F -25.6 °F 6% 30.39 in 10.0 mi SSE 3.5 mph - N/A   Clear
3:20 PM 35.6 °F 31.7 °F -31.0 °F 5% 30.39 in 10.0 mi South 4.6 mph - N/A   Clear
3:40 PM 35.6 °F 31.7 °F -27.4 °F 6% 30.39 in 10.0 mi South 4.6 mph - N/A   Clear
4:01 PM 35.6 °F 32.8 °F -20.2 °F 8% 30.38 in 10.0 mi SSE 3.5 mph - N/A   Clear
4:22 PM 33.8 °F 29.6 °F -13.0 °F 13% 30.38 in 10.0 mi SSE 4.6 mph - N/A   Clear
4:44 PM 33.8 °F - -14.8 °F 12% 30.39 in 10.0 mi Calm Calm - N/A   Clear
5:00 PM 33.8 °F 30.8 °F -11.2 °F 14% 30.38 in 10.0 mi SSE 3.5 mph - N/A   Clear
5:20 PM 32.0 °F 28.7 °F -13.0 °F 14% 30.39 in 10.0 mi SE 3.5 mph - N/A   Clear
5:40 PM 32.0 °F 28.7 °F -14.8 °F 13% 30.38 in 10.0 mi SSE 3.5 mph - N/A   Clear
6:04 PM 32.0 °F 26.4 °F -9.4 °F 17% 30.38 in 10.0 mi SSE 5.8 mph - N/A   Clear
6:20 PM 32.0 °F 27.5 °F -11.2 °F 15% 30.37 in 10.0 mi SSE 4.6 mph - N/A   Clear
6:42 PM 32.0 °F 28.7 °F -13.0 °F 14% 30.38 in 10.0 mi South 3.5 mph - N/A   Clear
7:00 PM 32.0 °F - -16.6 °F 12% 30.39 in 10.0 mi Calm Calm - N/A   Clear
7:21 PM 32.0 °F 28.7 °F -9.4 °F 17% 30.37 in 10.0 mi SE 3.5 mph - N/A   Mostly Cloudy
7:40 PM 32.0 °F - -13.0 °F 14% 30.37 in 10.0 mi Calm Calm - N/A   Overcast
8:00 PM 32.0 °F 28.7 °F -14.8 °F 13% 30.37 in 10.0 mi South 3.5 mph - N/A   Overcast
8:20 PM 32.0 °F - -11.2 °F 15% 30.36 in 10.0 mi Calm Calm - N/A   Overcast
8:41 PM 32.0 °F - -11.2 °F 15% 30.38 in 10.0 mi Calm Calm - N/A   Overcast
9:00 PM 32.0 °F - -9.4 °F 17% 30.37 in 10.0 mi Calm Calm - N/A   Overcast
9:20 PM 32.0 °F - -5.8 °F 20% 30.38 in 10.0 mi Calm Calm - N/A   Overcast
9:40 PM 32.0 °F 27.5 °F -5.8 °F 20% 30.37 in 10.0 mi SE 4.6 mph - N/A   Overcast
10:01 PM 32.0 °F - -4.0 °F 21% 30.36 in 10.0 mi Calm Calm - N/A   Overcast
10:21 PM 32.0 °F - -4.0 °F 21% 30.36 in 10.0 mi Calm Calm - N/A   Overcast
10:40 PM 32.0 °F 27.5 °F -0.4 °F 25% 30.36 in 10.0 mi SE 4.6 mph - N/A   Overcast
11:01 PM 32.0 °F - 12.2 °F 44% 30.36 in 10.0 mi Calm Calm - N/A   Overcast
11:22 PM 30.2 °F 26.7 °F 19.4 °F 64% 30.34 in 10.0 mi SSE 3.5 mph - N/A   Overcast
11:41 PM 30.2 °F 25.4 °F 21.2 °F 69% 30.32 in 10.0 mi SE 4.6 mph - N/A   Overcast